Regional Weather Roundup
Issued by NWS

Home | Current Version | Previous Version | Text Only | Print | Product List | Glossary Off
Versions: 1 2 3 4 5 6 7 8 9 10 11 12 13 14 15 16 17 18 19 20 21 22 23 24 25 26 27 28 29 30 31 32 33 34 35 36 37 38 39 40 41 42 43 44 45 46 47 48 49 50

000
ASUS43 KDMX 031003
RWRIA

WEATHER ROUNDUP FOR IOWA
NATIONAL WEATHER SERVICE DES MOINES IA
500 AM CDT TUE MAY 03 2016

NOTE: "FAIR" INDICATES FEW OR NO CLOUDS BELOW 12,000 FEET WITH NO
SIGNIFICANT WEATHER AND/OR OBSTRUCTIONS TO VISIBILITY.

* - THESE STATIONS ARE NOT NWS STATIONS...THUS NOT UNDER NWS
QUALITY CONTROL.  THEY ALSO DO NOT REPORT WEATHER SUCH
AS PRECIPITATION OR FOG.

IAZ001>003-012>014-020>022-031>034-043>046-031100-
   NORTHWEST IOWA

CITY           SKY/WX    TMP DP  RH WIND       PRES   REMARKS
CARROLL *      PTCLDY    45  39  81 CALM      30.03S
CHEROKEE *     FOG       37  37 100 CALM      30.03S VSB 1/2
DENISON *      CLEAR     39  37  93 CALM      30.02S
LE MARS *      CLEAR     39  37  93 CALM      30.04R
ORANGE CITY *  CLEAR     45  37  76 CALM      30.02S
SHELDON *      CLEAR     37  37 100 CALM      30.01S
SIOUX CITY     CLEAR     43  38  82 CALM      30.03R
SPENCER        CLEAR     40  38  93 CALM      30.02S
STORM LAKE *   CLEAR     46  37  71 SW7       30.03S
$$

IAZ055>058-069>071-079>083-090>094-031100-
   SOUTHWEST IOWA

CITY           SKY/WX    TMP DP  RH WIND       PRES   REMARKS
ATLANTIC *     CLEAR     39  39 100 CALM      30.05S
AUDUBON *      CLEAR     37  36  93 CALM      30.04F
CLARINDA *       N/A    N/A N/A N/A MISG        N/A
COUNCIL BLFS * CLEAR     48  43  81 SW8       30.04S
CRESTON *      CLEAR     45  41  87 SW3       30.06S
HARLAN  *      CLEAR     39  39 100 CALM      30.07F
LAMONI         MOCLDY    45  41  86 CALM      30.04F
SHENANDOAH *   PTCLDY    43  43 100 SW3       30.06S
$$

IAZ047>049-059>061-072>074-084-031100-
   CENTRAL IOWA

CITY           SKY/WX    TMP DP  RH WIND       PRES   REMARKS
AMES           CLEAR     41  39  93 CALM      30.03S
ANKENY *       PTCLDY    39  39 100 CALM      30.04S
BOONE *        CLEAR     45  41  87 W7        30.02S
CHARITON *     MOCLDY    43  43 100 SW6       30.04S
DES MOINES     PTCLDY    46  41  82 CALM      30.04S
GRINNELL*      CLEAR     41  39  93 CALM      30.04S
KNOXVILLE *    CLEAR     41  39  93 SW6       30.03S
MARSHALLTOWN   CLEAR     42  39  89 W5        30.02S
NEWTON *       CLEAR     45  45 100 W6        30.03S
PELLA *        CLEAR     44  43  98 W3        30.05S
$$

IAZ004>006-015-016-023>025-035-036-031100-
   NORTH CENTRAL IOWA

CITY           SKY/WX    TMP DP  RH WIND       PRES   REMARKS
ALGONA *       CLEAR     45  41  87 SW6       30.02S
CLARION *      CLEAR     41  39  93 S7        30.02S
ESTHERVILLE    CLEAR     42  38  85 W8        30.01S
FORT DODGE *   CLEAR     39  36  87 CALM      30.03S
MASON CITY     CLEAR     46  40  79 W7        30.02S
FOREST CITY *  CLEAR     36  36 100 CALM      30.01S FOG
WEBSTER CITY * CLEAR     41  39  93 SW8       30.01S
IOWA FALLS *     N/A     43  39  87 W7        30.03S
$$

IAZ007>011-017>019-026>030-037>042-050>054-066-031100-
   NORTHEAST IOWA

CITY           SKY/WX    TMP DP  RH WIND       PRES   REMARKS
CEDAR RAPIDS   CLEAR     43  39  86 W5        30.01S
CHARLES CITY * CLEAR     45  41  87 W8        30.01S
CLINTON *      PTCLDY    41  39  93 W5        30.00F
DECORAH *      PTCLDY    46  39  76 VRB3      29.99S
DUBUQUE        CLEAR     43  38  82 SW5       29.99F
MONTICELLO *   PTCLDY    41  39  93 CALM      30.00F
OELWEIN *      PTCLDY    43  43 100 W6        30.02R
WATERLOO       CLEAR     38  36  92 CALM      30.01S
$$

IAZ064-065-067-068-078-031100-
   EAST CENTRAL IOWA

CITY           SKY/WX    TMP DP  RH WIND       PRES   REMARKS
DAVENPORT      PTCLDY    40  38  93 W6        30.01S
IOWA CITY      CLEAR     40  37  89 W3        30.03S
MT. PLEASANT * CLEAR     48  45  87 W5        30.03S
MUSCATINE *    PTCLDY    46  41  81 NW5       30.02S
QUAD CITIES    CLEAR     40  37  89 CALM      30.00F
$$

IAZ062-063-075>077-085>089-095>099-031100-
   SOUTHEAST IOWA

CITY           SKY/WX    TMP DP  RH WIND       PRES   REMARKS
BURLINGTON     CLEAR     47  44  90 NW7       30.01F
FAIRFIELD *    CLEAR     45  43  93 W9        30.02F
FORT MADISON * CLOUDY    48  45  87 NW5       30.03S
KEOKUK *       CLOUDY    48  46  93 CALM      30.02S
OSKALOOSA *      N/A     39  39 100 W6        30.04S WCI  35
OTTUMWA        CLEAR     38  37  97 W6        30.03S WCI  33
WASHINGTON *   PTCLDY    43  43 100 NW9       30.03F
$$

ABBREVIATIONS USED IN REMARKS
   TC - TEMPERATURES IN CELSIUS
  WCI - WIND CHILL INDEX
   HX - HEAT INDEX
  VSB - VISIBILITY
$$





USA.gov is the U.S. government's official web portal to all federal, state and local government web resources and services.